Location: Indian Springs
(36.5700°N, 115.6700°W)
Time: 03:21:17
(UTC-07:00)

Amateur Radio Satellites - All Passes

Search period start: 23 September 2014 02:51
Search period end: 24 September 2014 02:51
Location: Indian Springs, 36.5700°N, 115.6700°W

Satellite Date Start Highest point End Downlink Frequencies (MHz)
Time Altitude Azimuth
PANSAT 23 Sep 02:52:59 02:55:49 20° 190° (S) 02:58:39 not established
ITAMSAT 1 23 Sep 03:24:54 03:30:00 56° 287° (WNW) 03:35:05 435.822 SSB
Uribyol 2 23 Sep 03:28:11 03:33:13 49° 288° (WNW) 03:38:13 436.500 FM
JAS-1B 23 Sep 03:33:50 03:39:14 46° 289° (WNW) 03:44:46 435.800 - 435.900 CW/SSB
Oscar 19 23 Sep 03:34:32 03:38:08 19° 295° (WNW) 03:41:42 437.125 CW, 437.150 USB
Gurwin Techsat 1B 23 Sep 03:35:23 03:40:44 87° 104° (ESE) 03:46:02 435.225 FM
OPAL 23 Sep 03:48:28 03:52:51 28° 66° (ENE) 03:57:15 ?
AO-Echo 23 Sep 03:55:47 03:59:32 22° 292° (WNW) 04:03:22 ?
AO-27 23 Sep 04:01:39 04:05:52 25° 293° (WNW) 04:10:04 436.795 MHz FM
KITSAT 1 23 Sep 04:08:18 04:16:25 83° 62° (ENE) 04:24:29 435.175 FM
TMSAT-1 23 Sep 04:10:01 04:15:15 60° 286° (WNW) 04:20:27 436.925 FM
AO-7 23 Sep 04:13:55 04:21:16 34° 98° (E) 04:28:35 29.400 - 29.500 MHz
SO-50 23 Sep 04:52:02 04:53:35 11° 42° (NE) 04:55:08 436.795 FM
RS-15 23 Sep 04:54:42 05:05:22 52° 308° (NW) 05:15:59 29.354 - 29.394 USB, Beacon 29.352 USB
Uosat F 23 Sep 05:08:19 05:13:22 83° 103° (ESE) 05:18:24 435.120 FM
JAS-2 23 Sep 05:18:02 05:22:40 20° 94° (E) 05:27:37 435.800 - 435.900 CW/SSB, 435.910 FM
Gurwin Techsat 1B 23 Sep 05:18:34 05:19:54 11° 299° (WNW) 05:21:14 435.225 FM
OPAL 23 Sep 05:26:58 05:31:34 32° 261° (W) 05:36:13 ?
KITSAT 1 23 Sep 06:05:54 06:10:47 18° 259° (WSW) 06:15:41 435.175 FM
AO-7 23 Sep 06:06:19 06:14:09 49° 295° (WNW) 06:21:59 29.400 - 29.500 MHz
STRAND 1 23 Sep 06:14:02 06:18:47 42° 71° (ENE) 06:23:34 ?
SO-50 23 Sep 06:30:03 06:34:54 80° 60° (ENE) 06:39:46 436.795 FM
Uosat F 23 Sep 06:50:20 06:51:25 11° 299° (WNW) 06:52:29 435.120 FM
Hamsat 23 Sep 06:55:15 06:59:24 55° 285° (WNW) 07:03:29 145.90 MHz
JAS-2 23 Sep 07:01:41 07:07:54 63° 286° (WNW) 07:14:53 435.800 - 435.900 CW/SSB, 435.910 FM
RS-15 23 Sep 07:14:30 07:21:09 17° 338° (NNW) 07:27:52 29.354 - 29.394 USB, Beacon 29.352 USB
SO-67 23 Sep 07:16:34 07:19:34 27° 97° (E) 07:22:33 435.3500 MHz FM
ISS 23 Sep 07:25:08 07:28:06 29° 33° (NNE) 07:31:04 145.800 FM
MaSat-1 23 Sep 07:26:59 07:31:59 89° 293° (WNW) 07:36:55 437.345 MHz
UOSAT-12 23 Sep 07:46:17 07:50:44 40° 54° (NE) 07:55:06 437.025 FM, 437.400 FM
STRAND 1 23 Sep 07:54:28 07:58:07 20° 266° (W) 08:01:47 ?
SO-50 23 Sep 08:14:23 08:14:48 10° 254° (WSW) 08:15:12 436.795 FM
HO-68 23 Sep 08:24:26 08:28:53 17° 92° (E) 08:33:19 435.675 MHz FM
SO-67 23 Sep 08:50:32 08:52:19 14° 291° (WNW) 08:54:06 435.3500 MHz FM
ISS 23 Sep 09:01:56 09:04:44 25° 229° (SW) 09:07:30 145.800 FM
UKube-1 23 Sep 09:05:37 09:06:50 11° 92° (E) 09:08:03 145.840 MHz, 145.915 MHz
MaSat-1 23 Sep 09:07:37 09:09:17 12° 309° (NW) 09:10:56 437.345 MHz
UOSAT-12 23 Sep 09:27:08 09:30:35 20° 250° (WSW) 09:33:59 437.025 FM, 437.400 FM
RS-15 23 Sep 09:34:13 09:40:10 15° 17° (NNE) 09:46:11 29.354 - 29.394 USB, Beacon 29.352 USB
Sapphire 23 Sep 10:00:49 10:03:55 16° 104° (ESE) 10:07:03 437.095 MHz 1200 baud AX-25 AFSK
HO-68 23 Sep 10:10:00 10:17:11 76° 288° (WNW) 10:24:20 435.675 MHz FM
Oscar 11 23 Sep 10:18:08 10:22:26 63° 101° (E) 10:26:42 145.825 FM, Beacon 2401.500 USB
FUNcube-1 23 Sep 10:19:35 10:23:25 26° 95° (E) 10:27:11 145.950 - 145.970 MHz USB
PCSat 23 Sep 10:25:34 10:30:13 30° 108° (ESE) 10:34:53 145.825 MHz
UKube-1 23 Sep 10:39:03 10:43:20 55° 286° (WNW) 10:47:35 145.840 MHz, 145.915 MHz
ZACube-1 23 Sep 11:02:16 11:06:54 80° 102° (ESE) 11:11:26 437.345 MHz
Sapphire 23 Sep 11:41:27 11:46:46 61° 299° (WNW) 11:52:08 437.095 MHz 1200 baud AX-25 AFSK
RS-15 23 Sep 11:46:18 11:56:43 43° 48° (NE) 12:07:27 29.354 - 29.394 USB, Beacon 29.352 USB
FUNcube-1 23 Sep 11:55:52 11:59:42 27° 290° (WNW) 12:03:29 145.950 - 145.970 MHz USB
Oscar 11 23 Sep 11:57:08 11:58:02 11° 296° (WNW) 11:58:57 145.825 FM, Beacon 2401.500 USB
HO-68 23 Sep 12:00:41 12:03:41 13° 306° (NW) 12:06:42 435.675 MHz FM
PCSat 23 Sep 12:08:39 12:13:31 33° 305° (NW) 12:18:25 145.825 MHz
Oscar 16 23 Sep 12:11:29 12:14:22 15° 63° (ENE) 12:17:15 437.025 USB, Beacon 2401.1428
JAS-1B 23 Sep 12:27:00 12:32:19 20° 63° (ENE) 12:37:06 435.800 - 435.900 CW/SSB
ITAMSAT 1 23 Sep 13:02:56 13:06:30 19° 65° (ENE) 13:10:05 435.822 SSB
Uribyol 2 23 Sep 13:05:40 13:09:32 22° 66° (ENE) 13:13:25 436.500 FM
Oscar 19 23 Sep 13:08:33 13:13:34 52° 73° (ENE) 13:18:37 437.125 CW, 437.150 USB
Gurwin Techsat 1B 23 Sep 13:17:55 13:20:05 13° 62° (ENE) 13:22:14 435.225 FM
AO-Echo 23 Sep 13:27:29 13:31:46 35° 71° (ENE) 13:36:02 ?
AO-27 23 Sep 13:37:35 13:42:25 42° 71° (ENE) 13:47:16 436.795 MHz FM
Oscar 16 23 Sep 13:48:01 13:53:09 62° 259° (W) 13:58:19 437.025 USB, Beacon 2401.1428
TMSAT-1 23 Sep 13:50:27 13:54:04 19° 65° (ENE) 13:57:42 436.925 FM
RS-15 23 Sep 13:58:36 14:09:21 56° 249° (WSW) 14:20:35 29.354 - 29.394 USB, Beacon 29.352 USB
JAS-1B 23 Sep 14:13:49 14:22:25 77° 256° (WSW) 14:29:34 435.800 - 435.900 CW/SSB
ITAMSAT 1 23 Sep 14:40:39 14:45:36 47° 260° (W) 14:50:35 435.822 SSB
Uribyol 2 23 Sep 14:43:51 14:48:42 41° 261° (W) 14:53:35 436.500 FM
Oscar 19 23 Sep 14:49:59 14:53:11 16° 267° (W) 14:56:23 437.125 CW, 437.150 USB
Gurwin Techsat 1B 23 Sep 14:54:02 14:59:20 77° 257° (WSW) 15:04:40 435.225 FM
AO-Echo 23 Sep 15:07:12 15:10:37 20° 265° (W) 15:14:02 ?
AO-7 23 Sep 15:10:20 15:17:48 39° 63° (ENE) 15:25:14 29.400 - 29.500 MHz
AO-27 23 Sep 15:18:18 15:22:04 20° 266° (W) 15:25:51 436.795 MHz FM
TMSAT-1 23 Sep 15:28:29 15:33:34 49° 260° (W) 15:38:42 436.925 FM
Saudisat 1A 23 Sep 15:51:53 15:56:15 70° 118° (ESE) 16:00:38 436.775 MHz
JAS-1B 23 Sep 16:11:03 16:13:27 11° 268° (W) 16:15:45 435.800 - 435.900 CW/SSB
Uosat F 23 Sep 16:19:06 16:24:05 88° 76° (ENE) 16:29:07 435.120 FM
KITSAT 1 23 Sep 16:43:31 16:47:04 14° 100° (E) 16:50:37 435.175 FM
AO-7 23 Sep 17:02:35 17:10:23 44° 259° (W) 17:18:13 29.400 - 29.500 MHz
JAS-2 23 Sep 17:12:48 17:17:37 39° 71° (ENE) 17:22:25 435.800 - 435.900 CW/SSB, 435.910 FM
MaSat-1 23 Sep 17:22:47 17:26:17 64° 249° (WSW) 17:29:15 437.345 MHz
Saudisat 1A 23 Sep 17:34:07 17:36:17 13° 315° (NW) 17:38:28 436.775 MHz
OPAL 23 Sep 17:38:45 17:43:54 84° 105° (ESE) 17:48:58 ?
Hamsat 23 Sep 17:45:34 17:49:54 74° 76° (ENE) 17:54:15 145.90 MHz
STRAND 1 23 Sep 18:28:08 18:31:28 17° 93° (E) 18:34:48 ?
KITSAT 1 23 Sep 18:33:08 18:41:13 83° 116° (ESE) 18:49:20 435.175 FM
HO-68 23 Sep 18:54:46 18:56:04 11° 52° (NE) 18:57:22 435.675 MHz FM
JAS-2 23 Sep 18:59:10 19:02:55 20° 266° (W) 19:06:39 435.800 - 435.900 CW/SSB, 435.910 FM
PCSat 23 Sep 19:16:21 19:19:48 17° 48° (NE) 19:23:15 145.825 MHz
SO-67 23 Sep 19:19:19 19:22:43 59° 260° (W) 19:26:08 435.3500 MHz FM
OPAL 23 Sep 19:20:29 19:22:01 11° 301° (WNW) 19:23:33 ?
STRAND 1 23 Sep 20:05:56 20:10:53 49° 288° (WNW) 20:15:48 ?
KITSAT 1 23 Sep 20:31:20 20:37:32 23° 316° (NW) 20:43:45 435.175 FM
Sapphire 23 Sep 20:31:48 20:37:12 63° 61° (ENE) 20:42:34 437.095 MHz 1200 baud AX-25 AFSK
HO-68 23 Sep 20:35:22 20:42:23 64° 71° (ENE) 20:49:26 435.675 MHz FM
SO-50 23 Sep 20:42:53 20:47:06 45° 115° (ESE) 20:51:27 436.795 FM
PCSat 23 Sep 20:58:21 21:03:45 70° 246° (WSW) 21:09:07 145.825 MHz
Oscar 11 23 Sep 21:10:48 21:14:46 36° 72° (ENE) 21:18:46 145.825 FM, Beacon 2401.500 USB
FUNcube-1 23 Sep 21:14:34 21:17:18 16° 66° (ENE) 21:20:05 145.950 - 145.970 MHz USB
UKube-1 23 Sep 21:31:48 21:36:08 89° 257° (WSW) 21:40:30 145.840 MHz, 145.915 MHz
UOSAT-12 23 Sep 21:56:06 21:59:29 21° 110° (ESE) 22:02:55 437.025 FM, 437.400 FM
ZACube-1 23 Sep 21:56:10 22:00:24 46° 73° (ENE) 22:04:45 437.345 MHz
Sapphire 23 Sep 22:17:03 22:20:01 15° 256° (WSW) 22:23:00 437.095 MHz 1200 baud AX-25 AFSK
SO-50 23 Sep 22:24:38 22:27:53 19° 312° (NW) 22:31:12 436.795 FM
HO-68 23 Sep 22:25:25 22:30:31 21° 266° (W) 22:35:40 435.675 MHz FM
Oscar 11 23 Sep 22:48:09 22:51:02 17° 266° (W) 22:53:56 145.825 FM, Beacon 2401.500 USB
FUNcube-1 23 Sep 22:49:05 22:53:17 43° 262° (W) 22:57:36 145.950 - 145.970 MHz USB
PANSAT 23 Sep 23:08:54 23:11:18 16° 165° (SSE) 23:13:42 not established
ZACube-1 23 Sep 23:34:43 23:37:03 14° 269° (W) 23:39:25 437.345 MHz
UOSAT-12 23 Sep 23:35:00 23:39:20 39° 306° (NW) 23:43:45 437.025 FM, 437.400 FM
ISS 24 Sep 00:05:35 00:08:36 33° 133° (SE) 00:11:38 145.800 FM
Saudisat 1A 24 Sep 00:21:14 00:25:03 28° 52° (NE) 00:28:51 436.775 MHz
PANSAT 24 Sep 00:47:48 00:50:55 24° 178° (S) 00:54:03 not established
Oscar 19 24 Sep 01:23:27 01:27:26 22° 95° (E) 01:31:23 437.125 CW, 437.150 USB
AO-Echo 24 Sep 01:37:59 01:40:40 14° 93° (E) 01:43:23 ?
ISS 24 Sep 01:42:32 01:45:20 24° 329° (NNW) 01:48:08 145.800 FM
AO-27 24 Sep 01:53:59 01:57:34 19° 94° (E) 02:01:08 436.795 MHz FM
Saudisat 1A 24 Sep 02:00:49 02:04:32 27° 248° (WSW) 02:08:13 436.775 MHz
Oscar 16 24 Sep 02:02:17 02:07:23 58° 101° (E) 02:12:25 437.025 USB, Beacon 2401.1428
JAS-1B 24 Sep 02:02:35 02:07:25 28° 97° (E) 02:12:26 435.800 - 435.900 CW/SSB
RS-15 24 Sep 02:08:37 02:17:42 30° 105° (ESE) 02:26:36 29.354 - 29.394 USB, Beacon 29.352 USB
PANSAT 24 Sep 02:27:48 02:30:35 19° 191° (S) 02:33:22 not established
KITSAT 1 24 Sep 02:29:44 02:36:28 28° 47° (NE) 02:43:08 435.175 FM
